Regional Weather Roundup
Issued by NWS Jackson, KY

Home | Current Version | Previous Version | Graphics & Text | Print | Product List | Glossary On
Versions: 1 2 3 4 5 6 7 8 9 10 11 12 13 14 15 16 17 18 19 20 21 22 23 24 25 26 27 28 29 30 31 32 33 34 35 36 37 38 39 40 41 42 43 44 45 46 47 48 49 50
420
ASUS43 KJKL 061810
RWRJKL

EAST KENTUCKY HOURLY WEATHER ROUNDUP
NATIONAL WEATHER SERVICE JACKSON KY
100 PM EST TUE DEC 06 2016

NOTE: "FAIR" INDICATES FEW OR NO CLOUDS BELOW 12,000 FEET WITH
NO SIGNIFICANT WEATHER AND/OR OBSTRUCTIONS TO VISIBILITY.

* THESE REPORTS ARE NOT UNDER NWS QUALITY CONTROL AND MAY NOT
  REPORT WEATHER SUCH AS PRECIPITATION AND FOG.

KYZ079-080-083-085-087-088-110-112-115-119-120-061900
...EASTERN KENTUCKY...

CITY           SKY/WX    TMP DP  RH WIND       PRES   REMARKS
JACKSON        HVY RAIN  52  50  93 W9        29.67R FOG
6HR MIN TEMP:  46; 6HR MAX TEMP:  54; 6HR PCP:  0.32;

LONDON         LGT RAIN  52  50  93 SW7       29.67R FOG
6HR MIN TEMP:  51; 6HR MAX TEMP:  53; 6HR PCP:  0.63;

SOMERSET*      DRIZZLE   52  52 100 CALM      29.68F
MONTICELLO*    CLOUDY    53  52  96 W8        29.68F
6HR MIN TEMP:  52; 6HR MAX TEMP:  57; 6HR PCP:  0.62;

WILLIAMSBURG*  CLOUDY    50  50 100 SE3       29.67F
MIDDLESBORO*   LGT RAIN  49  49 100 CALM      29.70F
6HR MIN TEMP:  48; 6HR MAX TEMP:  51; 6HR PCP:  0.71;

HARLAN APT*    CLOUDY    48  46  93 CALM      29.69R
PIKE CO APT*   LGT RAIN  48  45  90 SE10G18   29.64R
BIG SANDY APT* RAIN      50  46  86 S9G20     29.64R
6HR MIN TEMP:  48; 6HR MAX TEMP:  51;

MOREHEAD APT*  LGT RAIN  48  46  93 VRB3      29.66S
ASHLAND*       CLOUDY    48  46  93 SE5       29.62S
$$

KYZ035-036-041-042-044-050-067-078-099-061900
...CENTRAL KENTUCKY...

CITY           SKY/WX    TMP DP  RH WIND       PRES   REMARKS
MT STERLING*   DRIZZLE   46  46 100 SW5       29.66S
FLEMING/MASON* RAIN      47  47  99 CALM      29.64F
DANVILLE*      CLOUDY    50  48  93 CALM      29.66S
LEXINGTON      LGT RAIN  49  47  93 W9        29.64S FOG
6HR MIN TEMP:  42; 6HR MAX TEMP:  49; 6HR PCP:  0.27;

FRANKFORT      LGT RAIN  46  43  89 NW5       29.64F FOG
6HR MIN TEMP:  42; 6HR MAX TEMP:  46; 6HR PCP:  0.19;

LOUISVILLE     CLOUDY    46  42  86 NW6       29.68F
6HR MIN TEMP:  42; 6HR MAX TEMP:  46; 6HR PCP:  0.43;

LEBANON*       LGT RAIN  46  46 100 W5        29.67R
GLASGOW*       DRIZZLE  N/A N/A N/A W7        29.70R
BOWLING GREEN  LGT RAIN  48  45  89 NW8       29.74R
6HR MIN TEMP:  47; 6HR MAX TEMP:  50; 6HR PCP:  0.55;

$$

KYZ091>093-OHZ055-061-077-WVZ005-015-034-035-042-061900
...SOUTHERN OHIO/WEST VIRGINIA...

CITY           SKY/WX    TMP DP  RH WIND       PRES   REMARKS
COVINGTON      LGT RAIN  41  40  96 NW9       29.66S FOG
COLUMBUS       LGT RAIN  41  41 100 E5        29.64F FOG
DAYTON         RAIN      39  38  96 NW5       29.66F FOG
WILMINGTON     LGT RAIN  42  41  96 NW6       29.64R FOG
HUNTINGTON     CLOUDY    51  47  86 SE6       29.64R
CHARLESTON     LGT RAIN  47  41  80 SE12G22   29.62F
PINEVILLE*     MIX PCPN  43  38  82 MISG      29.74F
BECKLEY        LGT RAIN  38  35  89 SE17G31   29.70F WCI  28
BLUEFIELD      HVY RAIN  36  33  89 SE15G25   29.73F FOG     WCI  27
LOGAN CO APT*  MOCLDY    46  39  76 CALM      29.64F
$$

VAZ002-007-008-TNZ017-027-036-066-071-061900
...SOUTHWEST VIRGINIA/EAST TENNESSEE...

CITY           SKY/WX    TMP DP  RH WIND       PRES   REMARKS
WISE*          CLOUDY    43  43 100 S10G16    29.68R
JONESVILLE*    RAIN      48  46  93 CALM      29.73F
ABINGDON*      CLOUDY    44  43  95 E15       29.73F FOG
BRISTOL        HVY RAIN  46  44  93 E3        29.71F FOG
MORRISTOWN*    CLOUDY    50  50 100 CALM      29.69R FOG
SEVIERVILLE*   PTCLDY    48  48 100 CALM      29.68F
KNOXVILLE      CLOUDY    52  49  89 CALM      29.68S
OAK RIDGE      LGT RAIN  53  49  86 CALM      29.70S
CROSSVILLE     CLOUDY    53  51  93 VRB7      29.69S FOG
NASHVILLE      CLOUDY    50  47  89 NW12      29.73R
$$

...KEY TO REMARKS...
VSB - VISIBILITY IN MILES
WCI - WIND CHILL INDEX
HX  - HEAT INDEX

$$




USA.gov is the U.S. government's official web portal to all federal, state and local government web resources and services.